CW0354 Weather Reports


time (UTC)temp
F
wind
direction
speed
knots
gust
knots
rain 1hr
in
rain 24hr
in
rain mn
in
humidity
%
barometer
mb
20260506103410 57 245 10.4 17.4 0.00 0.00 0.00 87 1010.4
20260506102413 57 236 9.6 18.2 0.00 0.00 0.00 87 1010.3
20260506101910 57 233 10.4 15.6 0.00 0.00 0.00 87 1010.2
20260506101410 57 238 9.6 19.1 0.00 0.00 0.00 87 1010.2
20260506100907 57 232 8.7 20.0 0.00 0.00 0.00 87 1010.3
20260506095905 57 233 11.3 15.6 0.00 0.00 0.00 87 1010.2
20260506095408 57 239 9.6 17.4 0.00 0.00 0.00 86 1010.3
20260506094912 57 240 10.4 19.1 0.00 0.00 0.00 86 1010.1
20260506094410 57 233 10.4 21.7 0.00 0.00 0.00 86 1010.2
20260506093909 57 235 10.4 18.2 0.00 0.00 0.00 86 1010.1
20260506093409 57 238 9.6 15.6 0.00 0.00 0.00 86 1010.0
20260506092908 57 236 11.3 18.2 0.00 0.00 0.00 86 1010.1
20260506092413 57 238 10.4 20.9 0.00 0.00 0.00 86 1010.1
20260506091910 57 236 11.3 17.4 0.00 0.00 0.00 86 1010.2
20260506090908 57 240 10.4 17.4 0.00 0.00 0.00 86 1010.2
20260506090410 57 233 9.6 17.4 0.00 0.00 0.00 86 1010.4
20260506085911 57 238 10.4 18.2 0.00 0.00 0.00 86 1010.3
20260506083912 57 236 11.3 21.7 0.00 0.00 0.00 85 1010.4
20260506083410 57 239 11.3 21.7 0.00 0.00 0.00 85 1010.3
20260506082907 57 234 11.3 18.2 0.00 0.00 0.00 85 1010.3
20260506081910 57 233 10.4 19.1 0.00 0.00 0.00 85 1010.5
20260506081412 57 239 10.4 20.0 0.00 0.00 0.00 85 1010.5
20260506080916 58 237 10.4 22.6 0.00 0.00 0.00 85 1010.5
20260506080407 57 238 10.4 21.7 0.00 0.00 0.00 85 1010.6
20260506072906 58 238 10.4 20.9 0.00 0.00 0.00 84 1010.7
20260506072411 58 241 10.4 20.9 0.00 0.00 0.00 84 1010.8
20260506071910 58 244 8.7 19.1 0.00 0.00 0.00 84 1010.9
20260506071410 57 239 10.4 15.6 0.00 0.00 0.00 84 1010.9
20260506070910 58 240 8.7 17.4 0.00 0.00 0.00 84 1010.9
20260506070410 58 246 7.8 19.1 0.00 0.00 0.00 84 1010.9
20260506062412 58 247 8.7 19.1 0.00 0.00 0.00 83 1010.8
20260506061907 58 242 10.4 20.0 0.00 0.00 0.00 82 1010.7
20260506061406 58 251 11.3 20.9 0.00 0.00 0.00 82 1010.8
20260506060912 58 241 11.3 19.1 0.00 0.00 0.00 82 1010.8
20260506060414 58 243 11.3 20.0 0.00 0.00 0.00 82 1010.7
20260506051410 58 244 10.4 17.4 0.00 0.00 0.00 82 1010.9
20260506050906 59 244 11.3 17.4 0.00 0.00 0.00 82 1011.0
20260506050410 58 243 10.4 19.1 0.00 0.00 0.00 82 1011.0
20260506044407 58 243 10.4 15.6 0.00 0.00 0.00 81 1011.1
20260506043908 58 247 10.4 17.4 0.00 0.00 0.00 81 1011.1
20260506042909 59 245 9.6 17.4 0.00 0.00 0.00 81 1011.1
20260506041907 59 246 10.4 20.9 0.00 0.00 0.00 81 1011.1
20260506041408 59 250 12.2 20.9 0.00 0.00 0.00 81 1011.1
20260506040941 59 245 12.2 20.9 0.00 0.00 0.00 81 1011.1
20260506040408 59 229 11.3 22.6 0.00 0.00 0.00 81 1010.9
20260506035906 59 252 11.3 21.7 0.00 0.00 0.00 81 1011.0
20260506035409 59 243 11.3 19.1 0.00 0.00 0.00 81 1011.0
20260506034410 59 245 10.4 20.9 0.00 0.00 0.00 81 1011.1
20260506033410 58 247 10.4 14.8 0.00 0.00 0.00 80 1011.1
20260506031908 59 246 10.4 21.7 0.00 0.00 0.00 80 1011.1
20260506031410 59 242 8.7 19.1 0.00 0.00 0.00 80 1011.1
20260506030410 59 232 10.4 17.4 0.00 0.00 0.00 80 1011.1
20260506025911 59 249 8.7 17.4 0.00 0.00 0.00 80 1011.2
20260506025409 59 246 9.6 14.8 0.00 0.00 0.00 80 1011.3
20260506024910 59 240 10.4 17.4 0.00 0.00 0.00 80 1011.3
20260506024410 59 244 10.4 18.2 0.00 0.00 0.00 80 1011.2
20260506023909 59 248 9.6 18.2 0.00 0.00 0.00 79 1011.2
20260506023410 59 246 9.6 19.1 0.00 0.00 0.00 79 1011.2
20260506022915 59 238 9.6 19.1 0.00 0.00 0.00 79 1011.3
20260506022409 59 246 10.4 19.1 0.00 0.00 0.00 79 1011.2
20260506021910 59 248 10.4 19.1 0.00 0.00 0.00 79 1011.2
20260506021410 59 249 11.3 20.0 0.00 0.00 0.00 79 1011.1
20260506020908 59 239 11.3 17.4 0.00 0.00 0.00 79 1011.1
20260506020410 59 240 10.4 20.0 0.00 0.00 0.00 78 1011.2
20260506015912 59 253 8.7 17.4 0.00 0.00 0.00 78 1011.2
20260506015409 59 244 11.3 19.1 0.00 0.00 0.00 78 1011.0
20260506014910 59 245 9.6 18.2 0.00 0.00 0.00 78 1011.0
20260506014410 59 242 9.6 14.8 0.00 0.00 0.00 78 1011.0
20260506013906 59 236 9.6 20.0 0.00 0.00 0.00 77 1011.1
20260506013410 59 235 10.4 18.2 0.00 0.00 0.00 77 1010.9
20260506012408 59 232 10.4 21.7 0.00 0.00 0.00 76 1010.7
20260506011410 60 230 10.4 21.7 0.00 0.00 0.00 76 1010.8
20260506010912 60 244 8.7 19.1 0.00 0.00 0.00 75 1010.8
20260506010410 60 243 12.2 21.7 0.00 0.00 0.00 75 1010.7
20260506005906 60 247 11.3 20.9 0.00 0.00 0.00 75 1010.7
20260506005409 60 239 12.2 24.3 0.00 0.00 0.00 75 1010.7
20260506004911 60 237 13.0 24.3 0.00 0.00 0.00 75 1010.4
20260506004410 60 236 13.0 25.2 0.00 0.00 0.00 75 1010.5
20260506003910 60 240 12.2 24.3 0.00 0.00 0.00 75 1010.4
20260506003411 60 244 13.0 22.6 0.00 0.00 0.00 75 1010.4
20260506002906 60 236 13.0 22.6 0.00 0.00 0.00 74 1010.4
20260506002413 60 236 11.3 24.3 0.00 0.00 0.00 74 1010.3
20260506001905 60 243 13.9 21.7 0.00 0.00 0.00 74 1010.2
20260506001410 60 241 11.3 21.7 0.00 0.00 0.00 74 1010.1
20260506000910 61 243 12.2 25.2 0.00 0.00 0.00 74 1010.0
20260506000409 60 240 13.0 22.6 0.00 0.00 0.00 74 1009.9
20260505235910 61 229 12.2 22.6 0.00 0.00 0.00 74 1009.8
20260505235409 61 234 12.2 21.7 0.00 0.00 0.00 73 1009.8
20260505234911 61 232 12.2 22.6 0.00 0.00 0.00 73 1009.6
20260505234411 61 240 13.0 20.0 0.00 0.00 0.00 73 1009.4
20260505233907 61 234 13.9 22.6 0.00 0.00 0.00 73 1009.3
20260505233410 61 234 12.2 22.6 0.00 0.00 0.00 72 1009.1
20260505232907 61 226 12.2 25.2 0.00 0.00 0.00 72 1009.2
20260505232409 61 236 13.0 22.6 0.00 0.00 0.00 72 1009.1
20260505231906 61 239 13.9 24.3 0.00 0.00 0.00 72 1009.1
20260505231406 61 242 13.0 20.9 0.00 0.00 0.00 72 1009.1
20260505230911 62 235 13.9 24.3 0.00 0.00 0.00 71 1009.1
20260505230408 62 226 12.2 20.9 0.00 0.00 0.00 71 1009.0
20260505225911 62 241 13.9 22.6 0.00 0.00 0.00 70 1009.1
20260505225412 62 233 12.2 25.2 0.00 0.00 0.00 70 1009.0
20260505224910 63 230 13.9 26.9 0.00 0.00 0.00 69 1008.9
20260505224413 63 234 14.8 22.6 0.00 0.00 0.00 69 1008.8
20260505223909 63 240 13.9 26.1 0.00 0.00 0.00 68 1008.9
20260505223407 63 231 13.0 20.0 0.00 0.00 0.00 68 1008.8
20260505222919 64 231 13.9 21.7 0.00 0.00 0.00 67 1008.9
20260505222406 64 232 12.2 25.2 0.00 0.00 0.00 67 1008.8
20260505221407 64 220 13.0 22.6 0.00 0.00 0.00 66 1008.6
20260505220911 64 215 12.2 26.1 0.00 0.00 0.00 66 1008.6
20260505220407 65 215 13.9 26.1 0.00 0.00 0.00 66 1008.6
20260505215911 65 220 14.8 24.3 0.00 0.00 0.00 65 1008.7
20260505214911 65 219 11.3 26.9 0.00 0.00 0.00 66 1008.6
20260505214410 65 207 11.3 21.7 0.00 0.00 0.00 65 1008.6
20260505213912 65 215 10.4 22.6 0.00 0.00 0.00 65 1008.5
20260505212910 65 215 12.2 22.6 0.00 0.00 0.00 65 1008.4
20260505212408 65 219 11.3 21.7 0.00 0.00 0.00 65 1008.5
20260505211910 65 208 13.0 20.9 0.00 0.00 0.00 64 1008.4
20260505211411 65 207 13.0 21.7 0.00 0.00 0.00 64 1008.4
20260505210911 65 213 13.9 25.2 0.00 0.00 0.00 64 1008.4
20260505210406 66 220 13.9 22.6 0.00 0.00 0.00 63 1008.4
20260505205909 65 209 13.9 21.7 0.00 0.00 0.00 64 1008.3
20260505205406 66 209 12.2 21.7 0.00 0.00 0.00 63 1008.4
20260505204910 66 211 12.2 24.3 0.00 0.00 0.00 63 1008.4
20260505204411 66 218 11.3 24.3 0.00 0.00 0.00 63 1008.3
20260505203410 66 206 11.3 20.9 0.00 0.00 0.00 63 1008.4
20260505202910 66 208 12.2 20.9 0.00 0.00 0.00 63 1008.5
20260505202417 66 212 11.3 22.6 0.00 0.00 0.00 63 1008.5
20260505201910 66 209 11.3 22.6 0.00 0.00 0.00 63 1008.6
20260505201410 66 203 11.3 19.1 0.00 0.00 0.00 64 1008.6
20260505200908 66 213 13.0 26.1 0.00 0.00 0.00 64 1008.7
20260505195911 66 217 12.2 21.7 0.00 0.00 0.00 63 1008.8
20260505195410 66 207 12.2 20.9 0.00 0.00 0.00 63 1008.8
20260505194410 66 210 10.4 20.0 0.00 0.00 0.00 63 1009.0
20260505193908 67 211 12.2 20.0 0.00 0.00 0.00 62 1009.2
20260505193410 67 217 11.3 20.0 0.00 0.00 0.00 62 1009.2
20260505192911 67 213 10.4 19.1 0.00 0.00 0.00 62 1009.3
20260505192412 67 212 10.4 17.4 0.00 0.00 0.00 62 1009.4
20260505191910 67 209 10.4 20.0 0.00 0.00 0.00 62 1009.4
20260505191410 67 209 9.6 17.4 0.00 0.00 0.00 62 1009.5
20260505190906 67 214 10.4 19.1 0.00 0.00 0.00 62 1009.6
20260505190411 67 210 11.3 20.0 0.00 0.00 0.00 62 1009.7
20260505185908 67 220 9.6 17.4 0.00 0.00 0.00 62 1009.8
20260505185406 67 210 10.4 19.1 0.00 0.00 0.00 62 1009.9
20260505184910 68 218 10.4 18.2 0.00 0.00 0.00 61 1010.1
20260505184411 68 223 9.6 20.0 0.00 0.00 0.00 60 1010.1
20260505183410 69 217 7.8 17.4 0.00 0.00 0.00 59 1010.1
20260505182911 70 221 7.0 14.8 0.00 0.00 0.00 59 1010.3
20260505181910 70 222 4.3 8.7 0.00 0.00 0.00 60 1010.6
20260505181411 70 244 4.3 8.7 0.00 0.00 0.00 60 1010.6
20260505180909 69 255 6.1 12.2 0.00 0.00 0.00 60 1010.8
20260505180410 69 247 6.1 11.3 0.00 0.00 0.00 60 1010.9
20260505175912 69 240 6.1 13.9 0.00 0.00 0.00 60 1010.8
20260505175407 69 256 5.2 11.3 0.00 0.00 0.00 60 1011.0
20260505174910 69 240 6.1 13.0 0.00 0.00 0.00 61 1011.0
20260505174410 69 216 7.0 13.9 0.00 0.00 0.00 61 1010.8
20260505173912 69 229 7.0 12.2 0.00 0.00 0.00 61 1010.7
20260505172910 69 214 8.7 13.0 0.00 0.00 0.00 60 1010.9
20260505172410 69 235 6.1 12.2 0.00 0.00 0.00 61 1010.9
20260505171410 69 248 6.1 11.3 0.00 0.00 0.00 61 1011.0
20260505170912 69 237 7.8 13.0 0.00 0.00 0.00 61 1011.1
20260505170410 69 229 6.1 13.0 0.00 0.00 0.00 61 1011.1
20260505165911 69 247 7.0 12.2 0.00 0.00 0.00 62 1011.1
20260505164910 69 226 5.2 11.3 0.00 0.00 0.00 61 1011.1
20260505164411 69 225 7.8 13.0 0.00 0.00 0.00 60 1011.1
20260505163908 69 214 6.1 10.4 0.00 0.00 0.00 61 1011.3
20260505163410 70 225 5.2 12.2 0.00 0.00 0.00 61 1011.4
20260505162413 69 248 4.3 10.4 0.00 0.00 0.00 62 1011.6
20260505161910 69 236 4.3 7.8 0.00 0.00 0.00 62 1011.6
20260505161407 69 249 5.2 7.8 0.00 0.00 0.00 62 1011.7
20260505160909 69 260 6.1 8.7 0.00 0.00 0.00 62 1011.8
20260505160410 69 239 6.1 11.3 0.00 0.00 0.00 62 1011.7
20260505152910 68 229 6.1 12.2 0.00 0.00 0.00 63 1011.9
20260505151910 68 255 5.2 8.7 0.00 0.00 0.00 63 1012.0
20260505151411 68 248 6.1 10.4 0.00 0.00 0.00 63 1012.2
20260505150905 68 235 5.2 8.7 0.00 0.00 0.00 64 1012.2
20260505150410 68 244 7.8 13.0 0.00 0.00 0.00 63 1012.3
20260505140410 67 230 5.2 10.4 0.00 0.00 0.00 66 1011.9
20260505124410 60 215 4.3 7.8 0.00 0.00 0.00 81 1011.7
20260505123911 60 232 4.3 7.8 0.00 0.00 0.00 80 1011.7
20260505123410 60 234 4.3 7.0 0.00 0.00 0.00 80 1011.7
20260505122911 60 237 5.2 8.7 0.00 0.00 0.00 81 1011.7
20260505122409 60 235 4.3 8.7 0.00 0.00 0.00 82 1011.8
20260505121410 59 235 5.2 7.8 0.00 0.00 0.00 83 1011.9
20260505120912 59 235 4.3 7.0 0.00 0.00 0.00 83 1011.7
20260505120407 59 237 4.3 7.8 0.00 0.00 0.00 83 1011.8
20260505115909 59 245 4.3 7.8 0.00 0.00 0.00 83 1011.8
20260505115410 59 240 4.3 7.8 0.00 0.00 0.00 84 1011.7
20260505114410 59 248 4.3 7.8 0.00 0.00 0.00 84 1011.7
20260505113906 59 238 1.7 6.1 0.00 0.00 0.00 84 1011.7
20260505113410 59 256 5.2 7.8 0.00 0.00 0.00 85 1011.8
20260505112911 58 246 3.5 7.8 0.00 0.00 0.00 86 1011.6
20260505112408 58 244 6.1 10.4 0.00 0.00 0.00 87 1011.7
20260505111410 56 271 3.5 7.8 0.00 0.00 0.00 87 1011.8
20260505110909 57 246 4.3 7.8 0.00 0.00 0.00 87 1011.9
20260505110410 56 255 5.2 7.0 0.00 0.00 0.00 88 1011.7